sat.trackr.live / text

‹ back to catalog

STARLINK-30390

NORAD 57819 · 2023-138M

PAYLOAD ACTIVE UNKNOWN

§ Identity

Operator
Country
US
Launch date
2023-09-09
Launch site
AFETR
Launch vehicle
Mass (kg)
RCS (m²)

Purposes: comms

External: N2YO · Heavens-Above · Gunter

§ Orbital elements

Epoch: 2026-09-20T05:06:23.721984Z

Period
94.27 min
Inclination
43.0009°
Eccentricity
0.0001406
Mean motion
15.27577745 rev/d
Perigee alt
482.1 km
Apogee alt
484.0 km
Semi-major
6,861.2 km
B*
2.7216e-5
RAAN
216.0015°
Arg perigee
263.1972°
Mean anomaly
96.8720°
Rev number
16,842

§ Raw data

STARLINK-303901 57819U 23138M   26263.21277456  .00000487  00000+0  27216-4 0  99902 57819  43.0009 216.0015 0001406 263.1972  96.8720 15.27577745168427

JSON: /api/v1/satellites/57819 · /tle

For live sub-satellite position, see the globe view (requires WebGL).

§ Visibility from observer

Set your observer location to see the next 7 days of passes ≥ 10°. The values pass through the URL so the page stays shareable.

No JS? Fill the form by hand. The geolocation button needs JavaScript.